{"data":{"norad_id":63678,"epoch":"2026-05-25T04:00:23.737824Z","epoch_age_seconds":56802,"freshness":"FRESH","line1":"1 63678U 25085Q   26145.16694141  .00035118  00000+0  12773-2 0  9999","line2":"2 63678  42.9989 319.2301 0003113 273.8672  86.1823 15.27637042 60556","mean_motion":15.27637042,"eccentricity":0.0003113,"inclination_deg":42.9989,"raan_deg":319.2301,"arg_perigee_deg":273.8672,"mean_anomaly_deg":86.1823,"bstar":0.0012773,"rev_number":6055,"period_min":94.263228791227,"perigee_km":480.7424630238,"apogee_km":485.01413114777,"semimajor_km":6861.0152970858,"source":"CELESTRAK","updated_at":"2026-05-25T13:38:20.093527Z"}}